Weather History for Thomson, GA

Change the Weather History Date:

Wednesday, February 6, 2013

  Actual Average (KDBN) Record (KDBN)
Temperature  
Mean Temperature 52 °F -  
Max Temperature 70 °F 57 °F 77 °F (1939)
Min Temperature 35 °F 32 °F 19 °F (1966)
Degree Days  
Heating Degree Days 12    
Growing Degree Days 2 (Base 50)    
Moisture  
Dew Point 40 °F    
Average Humidity 74    
Maximum Humidity 100    
Minimum Humidity 28    
Precipitation  
Precipitation 0.00 in - - ()
Sea Level Pressure  
Sea Level Pressure 30.15 in    
Wind  
Wind Speed 1 mph (West)    
Max Wind Speed 6 mph    
Max Gust Speed -    
Visibility 8 miles    
Events      
Averages and records for this station are not official NWS values.
T = Trace of Precipitation, MM = Missing Value Source: NWS Daily Summary

Daily Weather History Graph

Daily Weather History Graph

Search for Another Location

Airport:

Trip Planner

Search our weather history database for the weather conditions in past years. The results will help you decide how hot, cold, wet, or windy it might be!

Date:

Astronomy

Feb. 06, 2013 Rise Set
Actual Time 7:22 AM EST 6:06 PM EST
Civil Twilight 6:56 AM EST 6:32 PM EST
Nautical Twilight 6:26 AM EST 7:01 PM EST
Astronomical Twilight 5:57 AM EST 7:31 PM EST
Moon 3:59 AM EST (2/6) 2:29 PM EST (2/6)
Length of Visible Light 11h 35m
Length of Day
10h 44m
Waning Crescent, 17% of the Moon is Illuminated
Feb 6
Waning Crescent
Feb 10
New
Feb 17
First Quarter
Feb 25
Full
Mar 4
Last Quarter

Hourly Weather History & Observations

Time (EST) Temp. Windchill Dew Point Humidity Pressure Visibility Wind Dir Wind Speed Gust Speed Precip Events Conditions
12:15 AM 47.8 °F - 47.8 °F 100% 30.07 in 7.0 mi SSE 3.5 mph - N/A   Scattered Clouds
12:35 AM 47.7 °F - 47.7 °F 100% 30.08 in 7.0 mi Calm Calm - N/A   Clear
12:55 AM 45.1 °F - 45.1 °F 100% 30.08 in 5.0 mi Calm Calm - N/A   Clear
1:15 AM 45.5 °F - 45.5 °F 100% 30.08 in 4.0 mi Calm Calm - N/A   Scattered Clouds
1:35 AM 45.5 °F - 45.5 °F 100% 30.09 in 5.0 mi Calm Calm - N/A   Mostly Cloudy
1:55 AM 45.1 °F - 45.1 °F 100% 30.08 in 4.0 mi Calm Calm - N/A   Scattered Clouds
2:15 AM 43.2 °F - 43.2 °F 100% 30.08 in 4.0 mi Calm Calm - N/A   Clear
2:35 AM 43.5 °F - 43.5 °F 100% 30.08 in 3.0 mi Calm Calm - N/A   Clear
2:55 AM 43.5 °F - 43.5 °F 100% 30.08 in 4.0 mi Calm Calm - N/A   Scattered Clouds
3:15 AM 42.8 °F - 42.8 °F 100% 30.09 in 4.0 mi Calm Calm - N/A   Clear
3:35 AM 41.9 °F - 41.9 °F 100% 30.09 in 1.5 mi Calm Calm - N/A   Unknown
3:55 AM 41.4 °F - 41.4 °F 100% 30.10 in 4.0 mi Calm Calm - N/A   Scattered Clouds
4:15 AM 40.3 °F - 40.3 °F 100% 30.10 in 4.0 mi Calm Calm - N/A   Scattered Clouds
4:35 AM 40.5 °F - 40.5 °F 100% 30.10 in 5.0 mi Calm Calm - N/A   Scattered Clouds
4:55 AM 39.6 °F - 39.6 °F 100% 30.11 in 2.5 mi Calm Calm - N/A   Scattered Clouds
5:55 AM 36.5 °F - 36.5 °F 100% 30.13 in 7.0 mi Calm Calm - N/A   Clear
6:15 AM 38.5 °F - 38.5 °F 100% 30.14 in 3.0 mi Calm Calm - N/A   Clear
6:35 AM 37.8 °F - 37.8 °F 100% 30.15 in 5.0 mi Calm Calm - N/A   Clear
6:55 AM 37.6 °F - 37.6 °F 100% 30.16 in 5.0 mi Calm Calm - N/A   Scattered Clouds
7:15 AM 37.2 °F - 37.2 °F 100% 30.17 in 0.5 mi Calm Calm - N/A   Overcast
7:35 AM 35.6 °F 32.8 °F 35.6 °F 100% 30.17 in 0.2 mi South 3.5 mph - N/A   Overcast
7:55 AM 36.7 °F - 36.7 °F 100% 30.18 in 0.2 mi Calm Calm - N/A   Overcast
8:35 AM 42.8 °F - 42.8 °F 100% 30.19 in 1.2 mi Calm Calm - N/A   Unknown
8:55 AM 46.2 °F - 46.2 °F 100% 30.20 in 3.0 mi Calm Calm - N/A   Clear
9:15 AM 48.4 °F - 48.4 °F 100% 30.20 in 7.0 mi Calm Calm - N/A   Clear
9:55 AM 52.5 °F - 49.6 °F 90% 30.21 in 10.0 mi Calm Calm - N/A   Clear
10:15 AM 54.3 °F - 49.1 °F 83% 30.21 in 10.0 mi Calm Calm - N/A   Clear
10:35 AM 56.7 °F - 48.0 °F 73% 30.22 in 10.0 mi Calm Calm - N/A   Clear
10:55 AM 59.2 °F - 47.7 °F 66% 30.22 in 10.0 mi Calm Calm - N/A   Clear
11:15 AM 60.4 °F - 46.0 °F 59% 30.21 in 10.0 mi Calm Calm - N/A   Clear
11:55 AM 63.5 °F - 40.5 °F 43% 30.21 in 10.0 mi Calm Calm - N/A   Clear
12:15 PM 64.4 °F - 40.1 °F 41% 30.20 in 10.0 mi WNW 3.5 mph - N/A   Clear
12:35 PM 66.0 °F - 39.6 °F 38% 30.19 in 10.0 mi Calm Calm - N/A   Clear
12:55 PM 65.7 °F - 38.5 °F 37% 30.18 in 10.0 mi WNW 5.8 mph - N/A   Clear
1:15 PM 66.2 °F - 38.7 °F 36% 30.17 in 10.0 mi NNE 4.6 mph - N/A   Clear
1:55 PM 68.0 °F - 39.0 °F 35% 30.16 in 10.0 mi Calm Calm - N/A   Clear
2:15 PM 68.0 °F - 38.8 °F 34% 30.15 in 10.0 mi WNW 5.8 mph - N/A   Clear
2:35 PM 68.4 °F - 38.7 °F 34% 30.15 in 10.0 mi WNW 4.6 mph - N/A   Clear
2:55 PM 68.5 °F - 38.3 °F 33% 30.15 in 10.0 mi Calm Calm - N/A   Clear
3:15 PM 70.0 °F - 38.5 °F 32% 30.15 in 10.0 mi SW 4.6 mph - N/A   Clear
3:35 PM 69.6 °F - 37.9 °F 31% 30.15 in 10.0 mi Calm Calm - N/A   Clear
3:55 PM 70.0 °F - 35.6 °F 28% 30.14 in 10.0 mi WSW 4.6 mph - N/A   Clear
4:15 PM 69.6 °F - 36.7 °F 30% 30.14 in 10.0 mi West 5.8 mph - N/A   Clear
4:35 PM 68.9 °F - 35.6 °F 29% 30.14 in 10.0 mi West 3.5 mph - N/A   Clear
4:55 PM 68.9 °F - 35.4 °F 29% 30.14 in 10.0 mi NW 3.5 mph - N/A   Clear
5:15 PM 68.2 °F - 35.2 °F 30% 30.14 in 10.0 mi Calm Calm - N/A   Clear
5:35 PM 65.7 °F - 37.9 °F 36% 30.15 in 10.0 mi Calm Calm - N/A   Clear
5:55 PM 62.4 °F - 37.6 °F 40% 30.15 in 10.0 mi Calm Calm - N/A   Clear
6:15 PM 59.0 °F - 39.0 °F 48% 30.16 in 10.0 mi Calm Calm - N/A   Clear
6:35 PM 55.0 °F - 39.6 °F 56% 30.16 in 10.0 mi Calm Calm - N/A   Clear
6:55 PM 53.8 °F - 40.1 °F 60% 30.16 in 10.0 mi Calm Calm - N/A   Clear
7:15 PM 50.9 °F - 40.3 °F 67% 30.17 in 10.0 mi Calm Calm - N/A   Clear
7:35 PM 49.1 °F - 39.4 °F 69% 30.17 in 10.0 mi Calm Calm - N/A   Clear
7:55 PM 48.7 °F - 39.2 °F 70% 30.16 in 10.0 mi ENE 3.5 mph - N/A   Clear
8:15 PM 45.7 °F - 39.2 °F 78% 30.16 in 10.0 mi Calm Calm - N/A   Clear
8:35 PM 45.5 °F - 39.2 °F 79% 30.18 in 10.0 mi Calm Calm - N/A   Clear
8:55 PM 44.2 °F - 38.7 °F 81% 30.19 in 10.0 mi Calm Calm - N/A   Clear
9:15 PM 43.2 °F - 38.7 °F 84% 30.20 in 10.0 mi Calm Calm - N/A   Clear
9:35 PM 42.4 °F - 38.3 °F 85% 30.20 in 10.0 mi Calm Calm - N/A   Clear
9:55 PM 41.7 °F - 38.1 °F 87% 30.20 in 10.0 mi Calm Calm - N/A   Clear
10:15 PM 41.0 °F - 37.9 °F 89% 30.19 in 10.0 mi Calm Calm - N/A   Clear
10:35 PM 39.7 °F - 37.0 °F 90% 30.19 in 10.0 mi Calm Calm - N/A   Clear
10:55 PM 39.7 °F - 37.4 °F 91% 30.19 in 10.0 mi Calm Calm - N/A   Clear
11:15 PM 39.2 °F - 37.0 °F 92% 30.18 in 10.0 mi Calm Calm - N/A   Clear
11:35 PM 39.4 °F - 37.6 °F 93% 30.18 in 10.0 mi Calm Calm - N/A   Clear
11:55 PM 38.1 °F - 36.7 °F 95% 30.19 in 10.0 mi Calm Calm - N/A   Clear